Weather History for Leadville, CO

Change the Weather History Date:

Saturday, April 20, 2013

  Actual Average Record
Temperature  
Mean Temperature 28 °F -  
Max Temperature 38 °F 45 °F 64 °F (1989)
Min Temperature 17 °F 20 °F 7 °F (1993)
Degree Days  
Heating Degree Days 37 33  
Month to date heating degree days 780 708  
Since 1 July heating degree days 9632 9691  
Cooling Degree Days 0 0  
Month to date cooling degree days 0 0  
Year to date cooling degree days 0 0  
Moisture  
Dew Point 20 °F    
Average Humidity 63    
Maximum Humidity 81    
Minimum Humidity 44    
Precipitation  
Precipitation 0.02 in 0.04 in 0.28 in (1990)
Month to date precipitation 2.02 0.72  
Year to date precipitation 5.15 2.98  
Sea Level Pressure  
Sea Level Pressure 29.98 in    
Wind  
Wind Speed 8 mph (NW)    
Max Wind Speed 21 mph    
Max Gust Speed 26 mph    
Visibility 7 miles    
Events Snow    
T = Trace of Precipitation, MM = Missing Value Source: NWS Daily Summary

Daily Weather History Graph

Daily Weather History Graph

Search for Another Location

Airport:

Trip Planner

Search our weather history database for the weather conditions in past years. The results will help you decide how hot, cold, wet, or windy it might be!

Date:

Astronomy

Apr. 20, 2013 Rise Set
Actual Time 6:20 AM MDT 7:47 PM MDT
Civil Twilight 5:52 AM MDT 8:16 PM MDT
Nautical Twilight 5:19 AM MDT 8:49 PM MDT
Astronomical Twilight 4:43 AM MDT 9:25 PM MDT
Moon 2:36 PM MDT (4/20) 3:09 AM MDT (4/20)
Length of Visible Light 14h 23m
Length of Day
13h 27m
Waxing Gibbous, 71% of the Moon is Illuminated
Apr 20
Waxing Gibbous
Apr 25
Full
May 2
Last Quarter
May 9
New
May 17
First Quarter

Hourly Weather History & Observations

Time (MDT) Temp. Windchill Dew Point Humidity Pressure Visibility Wind Dir Wind Speed Gust Speed Precip Events Conditions
12:53 AM 19.0 °F 7.5 °F 12.9 °F 77% 29.96 in 10.0 mi North 10.4 mph 17.3 mph N/A   Clear
1:53 AM 19.9 °F 12.1 °F 14.0 °F 78% 29.93 in 10.0 mi North 5.8 mph - N/A   Clear
2:10 AM 19.4 °F 11.5 °F 14.0 °F 80% 30.02 in 10.0 mi North 5.8 mph - N/A   Mostly Cloudy
2:53 AM 18.0 °F 8.7 °F 12.0 °F 78% 29.91 in 10.0 mi NE 6.9 mph - N/A   Overcast
3:22 AM 19.4 °F 11.5 °F 14.0 °F 80% 30.00 in 10.0 mi North 5.8 mph - N/A   Overcast
3:53 AM 19.9 °F 8.6 °F 15.1 °F 81% 29.88 in 8.0 mi NNE 10.4 mph - 0.00 in Snow Light Snow
4:15 AM 21.2 °F 10.9 °F 15.8 °F 80% 29.99 in 6.0 mi North 9.2 mph - 0.00 in Snow Light Snow
4:53 AM 21.0 °F 11.4 °F 15.1 °F 78% 29.86 in 6.0 mi NNE 8.1 mph - 0.00 in Snow Light Snow
5:16 AM 19.4 °F 14.3 °F 14.0 °F 80% 29.99 in 6.0 mi NW 3.5 mph - 0.00 in Snow Light Snow
5:53 AM 21.0 °F 13.4 °F 17.1 °F 85% 29.88 in 10.0 mi NNE 5.8 mph - 0.00 in   Overcast
6:53 AM 23.0 °F 18.4 °F 17.1 °F 78% 29.88 in 9.0 mi Variable 3.5 mph - 0.00 in   Overcast
7:53 AM 24.1 °F - 17.1 °F 75% 29.90 in 9.0 mi Calm Calm - N/A   Overcast
8:53 AM 25.0 °F 17.1 °F 17.1 °F 72% 29.91 in 10.0 mi North 6.9 mph - N/A   Overcast
9:53 AM 28.9 °F 21.9 °F 18.0 °F 64% 29.88 in 10.0 mi North 6.9 mph - N/A   Overcast
10:53 AM 30.0 °F 20.5 °F 19.9 °F 66% 29.90 in 10.0 mi NNW 11.5 mph - N/A   Overcast
11:53 AM 30.9 °F 20.7 °F 17.1 °F 57% 29.89 in 10.0 mi West 13.8 mph 19.6 mph N/A   Mostly Cloudy
12:53 PM 34.0 °F 25.0 °F 18.0 °F 52% 29.86 in 10.0 mi West 12.7 mph 20.7 mph N/A   Scattered Clouds
1:26 PM 30.2 °F 20.2 °F 23.0 °F 75% 30.02 in 2.5 mi NW 12.7 mph 21.9 mph 0.00 in Snow Light Snow
1:34 PM 30.2 °F 24.3 °F 23.0 °F 75% 30.02 in 1.5 mi NNW 5.8 mph 17.3 mph 0.00 in Snow Light Snow
1:39 PM 30.2 °F 20.2 °F 23.0 °F 75% 30.02 in 3.0 mi NW 12.7 mph 17.3 mph 0.00 in Snow Light Snow
1:53 PM 33.1 °F 25.5 °F 21.0 °F 61% 29.87 in 10.0 mi WNW 9.2 mph - 0.00 in   Overcast
2:53 PM 35.1 °F 30.1 °F 18.0 °F 50% 29.86 in 10.0 mi Variable 5.8 mph - N/A   Mostly Cloudy
3:53 PM 37.9 °F 30.0 °F 18.0 °F 45% 29.83 in 10.0 mi NW 12.7 mph 18.4 mph N/A   Mostly Cloudy
4:34 PM 35.6 °F 27.1 °F 19.4 °F 52% 30.00 in 10.0 mi NW 12.7 mph 20.7 mph N/A   Mostly Cloudy
4:53 PM 35.1 °F 26.9 °F 21.0 °F 57% 29.86 in 10.0 mi NNW 11.5 mph 20.7 mph N/A   Mostly Cloudy
5:53 PM 33.1 °F 23.0 °F 19.9 °F 59% 29.88 in 10.0 mi West 15.0 mph 23.0 mph N/A   Overcast
6:53 PM 30.0 °F 19.5 °F 21.0 °F 69% 29.91 in 10.0 mi WNW 13.8 mph 26.5 mph 0.00 in   Mostly Cloudy
7:53 PM 30.0 °F 24.1 °F 19.0 °F 64% 29.94 in 10.0 mi WNW 5.8 mph - N/A   Partly Cloudy
8:17 PM 26.6 °F 16.2 °F 23.0 °F 86% 30.09 in 1.5 mi West 11.5 mph 19.6 mph 0.00 in Snow Light Snow
8:24 PM 26.6 °F 21.2 °F 24.8 °F 93% 30.09 in 1.0 mi WSW 4.6 mph - 0.00 in Snow Light Snow
8:29 PM 26.6 °F 22.6 °F 24.8 °F 93% 30.10 in 3.0 mi SW 3.5 mph - 0.00 in Snow Light Snow
8:42 PM 26.6 °F 22.6 °F 23.0 °F 86% 30.10 in 10.0 mi WSW 3.5 mph - 0.00 in   Overcast
8:53 PM 27.0 °F 21.6 °F 21.9 °F 81% 29.98 in 10.0 mi WNW 4.6 mph - 0.00 in   Overcast
9:53 PM 27.0 °F 20.5 °F 21.0 °F 78% 29.97 in 10.0 mi West 5.8 mph - 0.00 in   Overcast
10:48 PM 26.6 °F 16.8 °F 21.2 °F 80% 30.13 in 2.5 mi WNW 10.4 mph - 0.00 in Snow Light Snow
10:53 PM 26.1 °F 16.8 °F 23.0 °F 88% 29.99 in 1.5 mi WNW 9.2 mph - 0.00 in Snow Light Snow
11:04 PM 24.8 °F 15.3 °F 23.0 °F 93% 30.13 in 0.8 mi WNW 9.2 mph - 0.00 in Snow Light Snow
11:18 PM 24.8 °F 16.9 °F 23.0 °F 93% 30.13 in 0.8 mi WNW 6.9 mph - 0.02 in Snow Light Snow
11:23 PM 24.8 °F 19.1 °F 24.8 °F 100% 30.13 in 1.0 mi Variable 4.6 mph - 0.02 in Snow Light Snow
11:28 PM 24.8 °F 19.1 °F 24.8 °F 100% 30.13 in 2.0 mi WNW 4.6 mph - 0.02 in Snow Light Snow
11:37 PM 24.8 °F - 23.0 °F 93% 30.13 in 8.0 mi Calm Calm - 0.02 in   Overcast
11:50 PM 24.8 °F - 21.2 °F 86% 30.13 in 10.0 mi Calm Calm - 0.02 in   Overcast
11:53 PM 25.0 °F 20.7 °F 23.0 °F 92% 29.99 in 10.0 mi SE 3.5 mph - 0.02 in   Overcast